TimeCET,TemperatureF,Dew PointF,Humidity,Sea Level PressureIn,VisibilityMPH,Wind Direction,Wind SpeedMPH,Gust SpeedMPH,PrecipitationIn,Events,Conditions,WindDirDegrees,DateUTC
12:15 AM,53.6,51.8,94,29.86,5.0,SSE,8.9,-,N/A,,Unknown,160,2013-11-02 23:15:00
12:45 AM,53.6,51.8,94,29.86,5.0,South,6.7,-,N/A,,Unknown,170,2013-11-02 23:45:00
1:15 AM,53.6,51.8,94,29.89,5.0,South,6.7,-,N/A,,Unknown,170,2013-11-03 00:15:00
1:45 AM,53.6,51.8,94,29.86,5.0,ESE,2.2,-,N/A,,Unknown,110,2013-11-03 00:45:00
2:15 AM,55.4,51.8,88,29.86,-9999.0,SSE,6.7,-,N/A,,Clear,160,2013-11-03 01:15:00
2:45 AM,55.4,51.8,88,29.83,-9999.0,South,8.9,-,N/A,,Clear,170,2013-11-03 01:45:00
3:15 AM,55.4,51.8,88,29.83,-9999.0,South,11.2,-,N/A,,Clear,180,2013-11-03 02:15:00
3:45 AM,55.4,51.8,88,29.80,-9999.0,SSE,8.9,-,N/A,,Clear,160,2013-11-03 02:45:00
4:15 AM,55.4,51.8,88,29.80,-9999.0,SSE,8.9,-,N/A,,Clear,160,2013-11-03 03:15:00
4:45 AM,55.4,51.8,88,29.80,-9999.0,SSE,6.7,-,N/A,,Clear,160,2013-11-03 03:45:00
5:15 AM,57.2,53.6,88,29.77,-9999.0,SSE,8.9,-,N/A,,Clear,160,2013-11-03 04:15:00
5:45 AM,57.2,53.6,88,29.77,-9999.0,SSE,8.9,-,N/A,,Clear,160,2013-11-03 04:45:00
6:15 AM,59.0,53.6,82,29.74,-9999.0,SSE,11.2,-,N/A,,Clear,160,2013-11-03 05:15:00
6:45 AM,59.0,53.6,82,29.74,-9999.0,South,11.2,-,N/A,,Clear,170,2013-11-03 05:45:00
7:15 AM,59.0,53.6,82,29.74,-9999.0,South,15.7,-,N/A,,Clear,180,2013-11-03 06:15:00
7:45 AM,59.0,55.4,88,29.74,-9999.0,SSE,15.7,-,N/A,,Clear,160,2013-11-03 06:45:00
8:09 AM,60.8,55.4,82,29.74,-9999.0,South,17.9,29.1,N/A,,Clear,170,2013-11-03 07:09:00
8:15 AM,60.8,55.4,82,29.71,-9999.0,South,15.7,26.8,N/A,,Clear,170,2013-11-03 07:15:00
8:45 AM,62.6,55.4,77,29.71,-9999.0,South,15.7,26.8,N/A,,Clear,170,2013-11-03 07:45:00
9:15 AM,62.6,55.4,77,29.71,-9999.0,South,20.1,-,N/A,,Clear,180,2013-11-03 08:15:00
9:45 AM,64.4,55.4,73,29.68,-9999.0,South,20.1,31.3,N/A,,Clear,180,2013-11-03 08:45:00
10:15 AM,64.4,55.4,73,29.68,-9999.0,South,20.1,-,N/A,,Clear,180,2013-11-03 09:15:00
10:45 AM,64.4,55.4,73,29.68,-9999.0,South,20.1,-,N/A,,Clear,180,2013-11-03 09:45:00
11:15 AM,62.6,55.4,77,29.68,-9999.0,South,17.9,-,N/A,,Clear,180,2013-11-03 10:15:00
11:24 AM,62.6,55.4,77,29.65,6.2,South,17.9,-,N/A,Rain,Light Rain,180,2013-11-03 10:24:00
11:45 AM,62.6,55.4,77,29.65,6.2,South,13.4,-,N/A,Rain,Light Rain,180,2013-11-03 10:45:00
12:15 PM,64.4,55.4,73,29.65,6.2,South,15.7,-,N/A,Rain,Light Rain,180,2013-11-03 11:15:00
12:40 PM,64.4,53.6,68,29.62,-9999.0,South,17.9,29.1,N/A,,Clear,180,2013-11-03 11:40:00
12:45 PM,64.4,55.4,73,29.62,-9999.0,South,17.9,29.1,N/A,,Clear,190,2013-11-03 11:45:00
1:15 PM,66.2,53.6,64,29.62,6.2,SSW,20.1,-,N/A,,Mostly Cloudy,200,2013-11-03 12:15:00
1:45 PM,66.2,53.6,64,29.62,6.2,SSW,20.1,31.3,N/A,,Mostly Cloudy,210,2013-11-03 12:45:00
2:00 PM,59.0,55.4,88,29.65,6.2,WNW,15.7,26.8,N/A,,Mostly Cloudy,300,2013-11-03 13:00:00
2:15 PM,57.2,55.4,94,29.68,6.2,NNW,17.9,-,N/A,,Overcast,330,2013-11-03 13:15:00
2:23 PM,55.4,53.6,94,29.68,6.2,NNW,20.1,-,N/A,Rain,Light Rain Showers,340,2013-11-03 13:23:00
2:41 PM,53.6,53.6,100,29.71,1.2,NNW,15.7,-,N/A,Rain,Rain,340,2013-11-03 13:41:00
2:45 PM,53.6,53.6,100,29.71,1.2,NNW,13.4,-,N/A,Rain,Rain,340,2013-11-03 13:45:00
3:15 PM,53.6,53.6,100,29.74,1.2,NNW,6.7,-,N/A,Rain,Rain,330,2013-11-03 14:15:00
3:45 PM,53.6,50.0,88,29.74,2.5,NNW,22.4,-,N/A,Rain,Light Rain,330,2013-11-03 14:45:00
4:15 PM,51.8,48.2,88,29.77,2.5,NNW,15.7,-,N/A,Rain,Light Rain,340,2013-11-03 15:15:00
4:30 PM,51.8,48.2,88,29.80,3.1,NNW,13.4,-,N/A,Rain,Light Rain,340,2013-11-03 15:30:00
4:45 PM,50.0,46.4,87,29.80,3.1,North,8.9,-,N/A,Rain,Light Rain,350,2013-11-03 15:45:00
5:15 PM,50.0,46.4,87,29.80,3.1,NNW,8.9,-,N/A,Rain,Light Rain,340,2013-11-03 16:15:00
5:45 PM,50.0,46.4,87,29.80,3.1,NE,4.5,-,N/A,Rain,Light Rain,40,2013-11-03 16:45:00
6:15 PM,50.0,46.4,87,29.80,6.2,East,4.5,-,N/A,Rain,Light Rain,80,2013-11-03 17:15:00
6:45 PM,50.0,44.6,82,29.86,6.2,NNE,4.5,-,N/A,Rain,Light Rain,30,2013-11-03 17:45:00
7:15 PM,50.0,44.6,82,29.86,6.2,NNE,4.5,-,N/A,Rain,Light Rain,30,2013-11-03 18:15:00
7:44 PM,50.0,44.6,82,29.86,-9999.0,ENE,4.5,-,N/A,,Clear,60,2013-11-03 18:44:00
7:45 PM,50.0,44.6,82,29.86,-9999.0,ENE,4.5,-,N/A,,Clear,60,2013-11-03 18:45:00
8:15 PM,50.0,44.6,82,29.89,-9999.0,NE,4.5,-,N/A,,Clear,50,2013-11-03 19:15:00
8:45 PM,48.2,44.6,87,29.89,-9999.0,East,4.5,-,N/A,,Clear,80,2013-11-03 19:45:00
9:15 PM,50.0,42.8,76,29.89,-9999.0,North,4.5,-,N/A,,Clear,10,2013-11-03 20:15:00
9:45 PM,50.0,42.8,76,29.89,-9999.0,NNE,4.5,-,N/A,,Clear,20,2013-11-03 20:45:00
10:15 PM,48.2,42.8,82,29.92,-9999.0,North,2.2,-,N/A,,Clear,350,2013-11-03 21:15:00
10:45 PM,48.2,44.6,87,29.92,-9999.0,ENE,2.2,-,N/A,,Clear,70,2013-11-03 21:45:00
11:15 PM,46.4,42.8,87,29.92,-9999.0,South,2.2,-,N/A,,Clear,190,2013-11-03 22:15:00
11:45 PM,46.4,44.6,93,29.92,-9999.0,South,2.2,-,N/A,,Clear,180,2013-11-03 22:45:00